Phoenix, AZ

7:43 PM MST on October 18, 2017 (GMT -0700)
Phoenix Sky Harbor International

Weather History for KPHX - March, 2014

Change the Weather History Date:

Tuesday, March 18, 2014

  Actual Average Record
Temperature  
Mean Temperature 71 °F 66 °F  
Max Temperature 81 °F 77 °F 95 °F (2017)
Min Temperature 61 °F 54 °F 36 °F (1954)
Degree Days  
Heating Degree Days 0 2  
Month to date heating degree days 7 58  
Since 1 July heating degree days 541 891  
Cooling Degree Days 6 3  
Month to date cooling degree days 66 37  
Year to date cooling degree days 128 54  
Growing Degree Days 21 (Base 50)    
Moisture  
Dew Point 8 °F    
Average Humidity 12    
Maximum Humidity 20    
Minimum Humidity 4    
Precipitation  
Precipitation 0.00 in 0.03 in 0.25 in (2012)
Month to date precipitation 0.99 0.66  
Year to date precipitation 0.99 2.49  
Snow  
Snow 0.00 in - - ()
Month to date snowfall 0.0  
Year to date snowfall 0.0  
Since 1 July snowfall 0.0  
Snow Depth 0.00 in    
Sea Level Pressure  
Sea Level Pressure 29.73 in    
Wind  
Wind Speed 8 mph (WNW)    
Max Wind Speed 18 mph    
Max Gust Speed 25 mph    
Visibility 10 miles    
Events      
T = Trace of Precipitation, MM = Missing Value Source: NWS Daily Summary

Daily Weather History Graph

Daily Weather History Graph

Search for Another Location

Airport or City:

Trip Planner

Search our weather history database for the weather conditions in past years. The results will help you decide how hot, cold, wet, or windy it might be!

Date:

Astronomy

Mar. 18, 2014 Rise Set
Actual Time 6:34 AM MST 6:38 PM MST
Civil Twilight 6:09 AM MST 7:03 PM MST
Nautical Twilight 5:40 AM MST 7:31 PM MST
Astronomical Twilight 5:11 AM MST 8:01 PM MST
Moon 8:50 PM MST (3/18) 7:32 AM MST (3/18)
Length of Visible Light 12h 53m
Length of Day
12h 03m
Waning Gibbous, 96% of the Moon is Illuminated
Mar 18
Waning Gibbous
Mar 23
Last Quarter
Mar 30
New
Apr 7
First Quarter
Apr 15
Full

Hourly Weather History & Observations

Time (MST) Temp. Dew Point Humidity Pressure Visibility Wind Dir Wind Speed Gust Speed Precip Events Conditions
12:51 AM 73.9 °F 19.0 °F 13% 29.58 in 10.0 mi NNW 8.1 mph - N/A   Mostly Cloudy
1:51 AM 71.1 °F 18.0 °F 13% 29.59 in 10.0 mi NW 4.6 mph - N/A   Scattered Clouds
2:51 AM 69.1 °F 19.9 °F 15% 29.61 in 10.0 mi NNE 5.8 mph - N/A   Scattered Clouds
3:51 AM 68.0 °F 19.0 °F 15% 29.62 in 10.0 mi West 5.8 mph - N/A   Scattered Clouds
4:51 AM 63.0 °F 21.9 °F 21% 29.64 in 10.0 mi SW 8.1 mph - N/A   Scattered Clouds
5:51 AM 66.0 °F 18.0 °F 16% 29.67 in 10.0 mi NW 3.5 mph - N/A   Scattered Clouds
6:51 AM 64.9 °F 8.1 °F 11% 29.70 in 10.0 mi NW 5.8 mph - N/A   Mostly Cloudy
7:51 AM 66.0 °F 7.0 °F 10% 29.73 in 10.0 mi North 9.2 mph - N/A   Scattered Clouds
8:51 AM 69.1 °F 6.1 °F 9% 29.76 in 10.0 mi NNW 10.4 mph - N/A   Mostly Cloudy
9:51 AM 71.1 °F 3.9 °F 7% 29.78 in 10.0 mi North 16.1 mph 21.9 mph N/A   Mostly Cloudy
10:51 AM 73.0 °F -0.0 °F 6% 29.79 in 10.0 mi NNE 6.9 mph 17.3 mph N/A   Mostly Cloudy
11:51 AM 75.0 °F -5.1 °F 4% 29.79 in 10.0 mi Calm Calm - N/A   Scattered Clouds
12:51 PM 77.0 °F -0.9 °F 5% 29.77 in 10.0 mi WSW 6.9 mph - N/A   Scattered Clouds
1:51 PM 78.1 °F -2.0 °F 4% 29.75 in 10.0 mi West 10.4 mph - N/A   Scattered Clouds
2:51 PM 78.1 °F 1.9 °F 5% 29.74 in 10.0 mi West 6.9 mph - N/A   Mostly Cloudy
3:51 PM 79.0 °F -0.9 °F 4% 29.73 in 10.0 mi West 8.1 mph - N/A   Mostly Cloudy
4:51 PM 78.1 °F 1.0 °F 5% 29.74 in 10.0 mi West 12.7 mph - N/A   Mostly Cloudy
5:51 PM 77.0 °F 3.0 °F 6% 29.75 in 10.0 mi West 11.5 mph - N/A   Mostly Cloudy
6:51 PM 75.9 °F 1.9 °F 6% 29.76 in 10.0 mi West 6.9 mph 17.3 mph N/A   Mostly Cloudy
7:51 PM 73.0 °F 6.1 °F 7% 29.78 in 10.0 mi West 6.9 mph - N/A   Mostly Cloudy
8:51 PM 72.0 °F 9.0 °F 9% 29.80 in 10.0 mi West 9.2 mph - N/A   Mostly Cloudy
9:51 PM 66.9 °F 12.0 °F 12% 29.82 in 10.0 mi WSW 5.8 mph - N/A   Mostly Cloudy
10:51 PM 64.0 °F 10.9 °F 13% 29.83 in 10.0 mi SW 6.9 mph - N/A   Mostly Cloudy
11:51 PM 64.0 °F 8.1 °F 11% 29.84 in 10.0 mi WSW 5.8 mph - N/A   Scattered Clouds